Regional Weather Roundup
Issued by NWS Albany, NY

Home | Current Version | Previous Version | Text Only | Print | Product List | Glossary On
Versions: 1 2 3 4 5 6 7 8 9 10 11 12 13 14 15 16 17 18 19 20 21 22 23 24 25 26 27 28 29 30 31 32 33 34 35 36 37 38 39 40 41 42 43 44 45 46 47 48 49 50
000
ASUS41 KALY 231510
RWRALY

NEW YORK STATE HOURLY WEATHER ROUNDUP
NATIONAL WEATHER SERVICE ALBANY NY
1100 AM EDT TUE MAY 23 2017

NOTE: "FAIR" INDICATES FEW OR NO CLOUDS BELOW 12,000 FEET WITH NO
SIGNIFICANT WEATHER AND/OR NO OBSTRUCTIONS TO VISIBILITY.

NYZ032-033-038>043-046>054-057>066-NYZ062>081-082-084-231600-
EAST


CITY           SKY/WX    TMP DP  RH WIND       PRES   REMARKS
ALBANY         CLOUDY    62  47  57 CALM      29.95S
GLENS FALLS    NOT AVBL
POUGHKEEPSIE   CLOUDY    60  50  69 CALM      29.96R
NEWBURGH       PTSUNNY   61  54  77 CALM      29.98R
MONTGOMERY     CLOUDY    62  48  60 CALM      29.96R
WHITE PLAINS   CLOUDY    64  46  52 N6        29.95R
ISLIP          CLOUDY    63  48  58 N12       29.94R
NEW YORK CITY  CLOUDY    63  48  58 NE5       29.96R
CENTRAL PARK   CLOUDY    63  50  62 VRB3      29.99R
$$

NYZ005>009-017-018-044>046-055-056-231600-
CENTRAL


CITY           SKY/WX    TMP DP  RH WIND       PRES   REMARKS
FULTON         CLOUDY    64  51  62 S8        29.94R
SYRACUSE       CLOUDY    64  49  57 SW5       29.94R
ROME           CLOUDY    61  49  64 CALM      29.95R
ELMIRA         CLOUDY    62  49  62 CALM      29.95F
BINGHAMTON     PTSUNNY   60  46  59 VRB5      29.96S
MONTICELLO     CLOUDY    57  48  72 SW3       29.98S
$$

NYZ026>034-041>043-087-231600-
NORTH


CITY           SKY/WX    TMP DP  RH WIND       PRES   REMARKS
WATERTOWN      MOSUNNY   61  49  64 W9        29.91R
FORT DRUM      NOT AVBL
OGDENSBURG     FAIR      67  49  53 S8        29.89S
MASSENA        MOSUNNY   64  47  53 SW8       29.89F
SARANAC LAKE   MOSUNNY   59  46  62 SW12      29.89F
PLATTSBURGH    MOSUNNY   60  46  59 SE15      29.88F
$$

NYZ001>004-010>016-019>021-085-231600-
WEST


CITY           SKY/WX    TMP DP  RH WIND       PRES   REMARKS
NIAGARA FALLS  PTSUNNY   67  49  52 SW14      29.90S
BUFFALO        CLOUDY    64  47  53 SW14      29.93R
DUNKIRK        CLOUDY    64  51  62 S7        29.92F
JAMESTOWN      MOSUNNY   57  48  72 S3        29.95F
WELLSVILLE     CLOUDY    62  49  62 NE3       29.97F
ROCHESTER      CLOUDY    64  50  60 SW8       29.92S
PENN YAN       CLOUDY    61  47  59 SW5       29.96R
$$

             KEY
       WCI = WIND CHILL INDEX
       VSB = VISIBILITY
       HX  = HEAT INDEX
$$



USA.gov is the U.S. government's official web portal to all federal, state and local government web resources and services.